| time (UTC) | temp F | wind direction | speed MPH | gust MPH | rain 1hr in | rain 24hr in | rain mn in | humidity % | barometer mb |
| 20260505211854 | 80 | 227 | 5.0 | 10.0 | 0.00 | 0.00 | 0.00 | 50 | 1015.9 |
| 20260505210334 | 80 | 235 | 6.0 | 16.0 | 0.00 | 0.00 | 0.00 | 51 | 1016.2 |
| 20260505204845 | 80 | 208 | 5.0 | 14.0 | 0.00 | 0.00 | 0.00 | 51 | 1016.2 |
| 20260505203326 | 80 | 250 | 3.0 | 12.0 | 0.00 | 0.00 | 0.00 | 51 | 1016.1 |
| 20260505201843 | 80 | 228 | 3.0 | 12.0 | 0.00 | 0.00 | 0.00 | 51 | 1016.2 |
| 20260505200352 | 80 | 244 | 5.0 | 16.0 | 0.00 | 0.00 | 0.00 | 50 | 1016.4 |
| 20260505194830 | 81 | 176 | 4.0 | 9.0 | 0.00 | 0.00 | 0.00 | 51 | 1016.6 |
| 20260505193346 | 79 | 218 | 4.0 | 11.0 | 0.00 | 0.00 | 0.00 | 52 | 1016.8 |
| 20260505191826 | 80 | 93 | 5.0 | 9.0 | 0.00 | 0.00 | 0.00 | 52 | 1017.1 |
| 20260505190343 | 80 | 238 | 5.0 | 10.0 | 0.00 | 0.00 | 0.00 | 52 | 1017.3 |
| 20260505184824 | 80 | 223 | 3.0 | 10.0 | 0.00 | 0.00 | 0.00 | 52 | 1017.6 |
| 20260505183333 | 79 | 226 | 7.0 | 12.0 | 0.00 | 0.00 | 0.00 | 53 | 1017.9 |
| 20260505181852 | 79 | 86 | 3.0 | 10.0 | 0.00 | 0.00 | 0.00 | 54 | 1017.9 |
| 20260505180343 | 79 | 128 | 2.0 | 12.0 | 0.00 | 0.00 | 0.00 | 54 | 1017.9 |
| 20260505174833 | 78 | 265 | 7.0 | 15.0 | 0.00 | 0.00 | 0.00 | 54 | 1018.0 |
| 20260505173333 | 78 | 202 | 4.0 | 9.0 | 0.00 | 0.00 | 0.00 | 57 | 1018.0 |
| 20260505171847 | 77 | 194 | 7.0 | 13.0 | 0.00 | 0.00 | 0.00 | 57 | 1018.1 |
| 20260505170332 | 77 | 207 | 4.0 | 10.0 | 0.00 | 0.00 | 0.00 | 59 | 1018.2 |
| 20260505164844 | 76 | 180 | 5.0 | 11.0 | 0.00 | 0.00 | 0.00 | 61 | 1018.4 |
| 20260505163327 | 76 | 239 | 2.0 | 10.0 | 0.00 | 0.00 | 0.00 | 63 | 1018.4 |
| 20260505161845 | 75 | 125 | 4.0 | 12.0 | 0.00 | 0.00 | 0.00 | 64 | 1018.6 |
| 20260505160330 | 74 | 190 | 4.0 | 9.0 | 0.00 | 0.00 | 0.00 | 66 | 1018.8 |
| 20260505153346 | 72 | 200 | 5.0 | 11.0 | 0.00 | 0.00 | 0.00 | 67 | 1019.0 |
| 20260505151825 | 72 | 206 | 7.0 | 11.0 | 0.00 | 0.00 | 0.00 | 66 | 1019.2 |
| 20260505150325 | 71 | 194 | 6.0 | 10.0 | 0.00 | 0.00 | 0.00 | 67 | 1019.1 |
| 20260505140326 | 68 | 220 | 5.0 | 11.0 | 0.00 | 0.00 | 0.00 | 72 | 1019.1 |
| 20260505124832 | 63 | 223 | 6.0 | 10.0 | 0.00 | 0.00 | 0.00 | 78 | 1019.2 |
| 20260505123332 | 61 | 261 | 2.0 | 7.0 | 0.00 | 0.00 | 0.00 | 79 | 1019.2 |
| 20260505121832 | 60 | 286 | 4.0 | 7.0 | 0.00 | 0.00 | 0.00 | 79 | 1019.2 |
| 20260505120331 | 59 | 223 | 3.0 | 7.0 | 0.00 | 0.00 | 0.00 | 80 | 1019.1 |
| 20260505114859 | 58 | 218 | 1.0 | 3.0 | 0.00 | 0.00 | 0.00 | 81 | 1019.1 |
| 20260505113346 | 56 | 211 | 1.0 | 4.0 | 0.00 | 0.00 | 0.00 | 81 | 1018.9 |
| 20260505111836 | 55 | 193 | 0.0 | 2.0 | 0.00 | 0.00 | 0.00 | 80 | 1018.7 |
| 20260505110326 | 54 | 186 | 0.0 | 1.0 | 0.00 | 0.00 | 0.00 | 79 | 1018.6 |
| 20260505101834 | 54 | 186 | 0.0 | 1.0 | 0.00 | 0.00 | 0.00 | 78 | 1017.9 |
| 20260505100349 | 54 | 186 | 0.0 | 3.0 | 0.00 | 0.00 | 0.00 | 77 | 1017.9 |
| 20260505094830 | 55 | 229 | 0.0 | 1.0 | 0.00 | 0.00 | 0.00 | 76 | 1017.9 |
| 20260505093355 | 55 | 229 | 1.0 | 3.0 | 0.00 | 0.00 | 0.00 | 77 | 1017.8 |
| 20260505091848 | 56 | 229 | 1.0 | 2.0 | 0.00 | 0.00 | 0.00 | 77 | 1017.6 |
| 20260505090409 | 56 | 230 | 0.0 | 2.0 | 0.00 | 0.00 | 0.00 | 76 | 1017.4 |
| 20260505084852 | 57 | 230 | 0.0 | 1.0 | 0.00 | 0.00 | 0.00 | 75 | 1017.4 |
| 20260505083332 | 58 | 230 | 1.0 | 4.0 | 0.00 | 0.00 | 0.00 | 75 | 1017.3 |
| 20260505081850 | 58 | 232 | 3.0 | 5.0 | 0.00 | 0.00 | 0.00 | 76 | 1017.1 |
| 20260505080323 | 58 | 246 | 0.0 | 5.0 | 0.00 | 0.00 | 0.00 | 74 | 1016.9 |
| 20260505074848 | 59 | 229 | 1.0 | 6.0 | 0.00 | 0.00 | 0.00 | 74 | 1016.9 |
| 20260505073338 | 59 | 195 | 1.0 | 5.0 | 0.00 | 0.00 | 0.00 | 74 | 1016.9 |
| 20260505071831 | 59 | 227 | 2.0 | 5.0 | 0.00 | 0.00 | 0.00 | 74 | 1016.9 |
| 20260505070329 | 60 | 253 | 2.0 | 4.0 | 0.00 | 0.00 | 0.00 | 73 | 1016.9 |
| 20260505064857 | 60 | 222 | 2.0 | 4.0 | 0.00 | 0.00 | 0.00 | 72 | 1016.9 |
| 20260505063333 | 60 | 192 | 3.0 | 6.0 | 0.00 | 0.00 | 0.00 | 72 | 1016.9 |
| 20260505061851 | 60 | 267 | 2.0 | 7.0 | 0.00 | 0.00 | 0.00 | 71 | 1016.9 |
| 20260505060411 | 61 | 235 | 2.0 | 8.0 | 0.00 | 0.00 | 0.00 | 71 | 1017.1 |
| 20260505054847 | 61 | 222 | 2.0 | 5.0 | 0.00 | 0.00 | 0.00 | 70 | 1017.2 |
| 20260505053349 | 62 | 221 | 3.0 | 7.0 | 0.00 | 0.00 | 0.00 | 70 | 1017.3 |
| 20260505051839 | 62 | 225 | 4.0 | 7.0 | 0.00 | 0.00 | 0.00 | 70 | 1017.4 |
| 20260505050333 | 63 | 238 | 4.0 | 7.0 | 0.00 | 0.00 | 0.00 | 70 | 1017.6 |
| 20260505040326 | 63 | 224 | 3.0 | 8.0 | 0.00 | 0.00 | 0.00 | 68 | 1017.3 |
| 20260505034832 | 64 | 212 | 2.0 | 9.0 | 0.00 | 0.00 | 0.00 | 67 | 1017.4 |
| 20260505033348 | 64 | 217 | 3.0 | 8.0 | 0.00 | 0.00 | 0.00 | 67 | 1017.4 |
| 20260505031905 | 64 | 238 | 4.0 | 8.0 | 0.00 | 0.00 | 0.00 | 67 | 1017.4 |
| 20260505030328 | 65 | 215 | 2.0 | 5.0 | 0.00 | 0.00 | 0.00 | 65 | 1017.6 |
| 20260505024857 | 65 | 212 | 5.0 | 10.0 | 0.00 | 0.00 | 0.00 | 66 | 1017.4 |
| 20260505023346 | 66 | 246 | 5.0 | 12.0 | 0.00 | 0.00 | 0.00 | 64 | 1017.2 |
| 20260505021828 | 67 | 115 | 2.0 | 8.0 | 0.00 | 0.00 | 0.00 | 63 | 1017.2 |
| 20260505020348 | 67 | 195 | 2.0 | 10.0 | 0.00 | 0.00 | 0.00 | 63 | 1017.2 |
| 20260505014846 | 68 | 300 | 3.0 | 9.0 | 0.00 | 0.00 | 0.00 | 62 | 1017.0 |
| 20260505013336 | 68 | 154 | 2.0 | 12.0 | 0.00 | 0.00 | 0.00 | 59 | 1016.7 |
| 20260505011835 | 68 | 155 | 3.0 | 8.0 | 0.00 | 0.00 | 0.00 | 58 | 1016.5 |
| 20260505010329 | 68 | 229 | 2.0 | 4.0 | 0.00 | 0.00 | 0.00 | 54 | 1016.1 |
| 20260505004824 | 69 | 216 | 0.0 | 2.0 | 0.00 | 0.00 | 0.00 | 49 | 1016.0 |
| 20260505003335 | 70 | 217 | 1.0 | 3.0 | 0.00 | 0.00 | 0.00 | 48 | 1015.7 |
| 20260505001831 | 71 | 215 | 1.0 | 6.0 | 0.00 | 0.00 | 0.00 | 48 | 1015.7 |
| 20260505000351 | 72 | 339 | 1.0 | 5.0 | 0.00 | 0.00 | 0.00 | 48 | 1015.5 |
| 20260504234909 | 73 | 200 | 1.0 | 5.0 | 0.00 | 0.00 | 0.00 | 46 | 1015.4 |
| 20260504233349 | 74 | 236 | 2.0 | 5.0 | 0.00 | 0.00 | 0.00 | 45 | 1015.2 |
| 20260504231846 | 75 | 211 | 3.0 | 7.0 | 0.00 | 0.00 | 0.00 | 44 | 1015.0 |
| 20260504230338 | 76 | 212 | 2.0 | 5.0 | 0.00 | 0.00 | 0.00 | 43 | 1015.0 |
| 20260504224832 | 77 | 112 | 4.0 | 12.0 | 0.00 | 0.00 | 0.00 | 42 | 1015.0 |
| 20260504223350 | 77 | 213 | 4.0 | 10.0 | 0.00 | 0.00 | 0.00 | 41 | 1015.0 |
| 20260504221911 | 78 | 227 | 3.0 | 8.0 | 0.00 | 0.00 | 0.00 | 40 | 1015.1 |
| 20260504220405 | 78 | 233 | 5.0 | 10.0 | 0.00 | 0.00 | 0.00 | 39 | 1015.0 |
| 20260504214833 | 78 | 217 | 6.0 | 17.0 | 0.00 | 0.00 | 0.00 | 38 | 1015.1 |
| 20260504213332 | 78 | 234 | 6.0 | 16.0 | 0.00 | 0.00 | 0.00 | 39 | 1015.2 |